星链-3845 (STARLINK-3845 )

导读 | 豆包AI

STARLINK-3845是美国太空探索技术公司星链计划中的一颗卫星,于2022年5月13日发射升空,属于星链星座组网卫星,主要服务于全球高速卫星互联网项目,为偏远地区、海洋等场景提供互联网接入服务,进一步扩充了星链星座的在轨卫星规模,提升星座的覆盖能力与服务稳定性。

基本信息
目录编号:
52541
目录名称:
STARLINK-3845
国际标识:
2022-051J
轨道中心:
EARTH
卫星名称:
星链-3845
卫星全名:
星链-3845 (STARLINK-3845 )
卫星状态:
在轨 (已飞行1401 天)
发射日期:
2022-05-13 UTC
国别 :
美国 (US)
星等 :
--
轨道信息
数据来源 国际轨道数据
星历时间: 2026-03-14T18:07:30+0800
13小时前
查看轨道信息
半长轴: 6917.877km
偏心率: 0.0001209
轨道倾角: 53.217°
近地点辐角 91.893°
升交点赤经 112.878°
平近点角 268.220°
近地点: 538.903km
远地点: 540.577km
周期: 95.437分钟
每日圈数: 15.088412
详细信息
固有亮度:
5
最大亮度:
2.5
卫星平台:
Starlink v1.5
覆盖范围:
全球
运营商:
太空探索技术公司
运营商所在国:
美国
制造商(研发单位):
太空探索技术公司
制造商所在国:
美国
使用方式:
暂无
卫星简介
星链(Starlink)计划是由太空探索技术公司(SpaceX)提出的一个巨型低轨卫星互联网星座项目,计划在2019年至2024年间在太空搭建由约1.2万颗卫星组成的“星链”网络,其中1584颗将部署在地球上空550千米处的近地轨道,并从2020年开始工作。该卫星仍在工作。
2D轨道图
3D轨道图
轨道高度分析图
轨道倾角分析图
轨道综合分析图
查看轨道综合分析图